Berlin, NH

5:34 AM EDT on October 22, 2017 (GMT -0400)
Berlin Municipal

Weather History for KBML - January, 1998

Change the Weather History Date:

Thursday, January 1, 1998

  Actual Average Record
Temperature  
Mean Temperature -6 °F -  
Max Temperature 8 °F 25 °F 48 °F (2005)
Min Temperature -18 °F 5 °F -18 °F (1998)
Degree Days  
Heating Degree Days 70    
Moisture  
Dew Point -5 °F    
Average Humidity 75    
Maximum Humidity 87    
Minimum Humidity 48    
Precipitation  
Precipitation 0.00 in - - ()
Sea Level Pressure  
Sea Level Pressure 30.15 in    
Wind  
Wind Speed 3 mph (NW)    
Max Wind Speed 10 mph    
Max Gust Speed -    
Visibility 5 miles    
Events Fog , Snow    
Averages and records for this station are not official NWS values.
T = Trace of Precipitation, MM = Missing Value Source: NWS Daily Summary

Daily Weather History Graph

Daily Weather History Graph

Search for Another Location

Airport or City:

Trip Planner

Search our weather history database for the weather conditions in past years. The results will help you decide how hot, cold, wet, or windy it might be!

Date:

Astronomy

Jan. 01, 1998 Rise Set
Actual Time 7:21 AM EST 4:15 PM EST
Civil Twilight 6:48 AM EST 4:48 PM EST
Nautical Twilight 6:11 AM EST 5:25 PM EST
Astronomical Twilight 5:36 AM EST 6:00 PM EST
Moon 9:15 AM EST (1/1) 7:56 PM EST (1/1)
Length of Visible Light 10h 00m
Length of Day
8h 53m
Waxing Crescent, 11% of the Moon is Illuminated
Jan 1
Waxing Crescent
Jan 5
First Quarter
Jan 12
Full
Jan 20
Last Quarter
Jan 28
New

Hourly Weather History & Observations

Time (EST) Temp. Windchill Dew Point Humidity Pressure Visibility Wind Dir Wind Speed Gust Speed Precip Events Conditions
12:52 AM -6.0 °F -23.6 °F -14.1 °F 68% 30.19 in 4.0 mi WNW 10.4 mph - N/A   Haze
1:45 AM -7.6 °F -20.6 °F -14.8 °F 71% 30.13 in 10.0 mi West 5.8 mph - N/A   Partly Cloudy
1:52 AM -8.0 °F -21.0 °F -15.0 °F 71% 30.23 in 10.0 mi WNW 5.8 mph - N/A   Partly Cloudy
2:52 AM -8.0 °F - -16.1 °F 68% 30.26 in 10.0 mi Calm Calm - N/A   Clear
3:52 AM -8.0 °F - -15.0 °F 71% 30.29 in 5.0 mi Calm Calm - N/A   Haze
4:16 AM -9.4 °F -18.6 °F -14.8 °F 77% 30.19 in 9.0 mi WNW 3.5 mph - N/A   Scattered Clouds
4:52 AM -14.1 °F -23.9 °F -18.9 °F 79% 30.31 in 10.0 mi Variable 3.5 mph - N/A   Clear
5:52 AM -18.0 °F - -23.1 °F 78% 30.34 in 10.0 mi Calm Calm - N/A   Clear
6:52 AM -18.9 °F - -24.0 °F 78% 30.38 in 10.0 mi Calm Calm - N/A   Clear
7:52 AM -18.9 °F -32.0 °F -25.1 °F 74% 30.40 in 10.0 mi ESE 4.6 mph - N/A   Clear
8:52 AM -14.1 °F - -18.0 °F 82% 30.41 in 10.0 mi Calm Calm - N/A   Clear
9:52 AM -9.0 °F - -16.1 °F 71% 30.41 in 10.0 mi Calm Calm - N/A   Clear
10:52 AM -2.9 °F - -14.1 °F 59% 30.38 in 10.0 mi Calm Calm - N/A   Clear
11:52 AM 1.0 °F - -11.9 °F 55% 30.34 in 10.0 mi Calm Calm - N/A   Clear
12:52 PM 3.9 °F - -9.9 °F 53% 30.32 in 10.0 mi Calm Calm - N/A   Clear
1:52 PM 6.1 °F - -9.9 °F 48% 30.31 in 10.0 mi Calm Calm - N/A   Clear
2:52 PM 3.9 °F - -8.0 °F 58% 30.28 in 10.0 mi Calm Calm - N/A   Partly Cloudy
3:52 PM 6.1 °F -0.9 °F -6.0 °F 58% 30.26 in 10.0 mi NNW 3.5 mph - N/A   Overcast
4:52 PM 6.1 °F -0.9 °F -5.1 °F 60% 30.25 in 10.0 mi North 3.5 mph - N/A   Overcast
5:52 PM 6.1 °F - -2.9 °F 67% 30.22 in 5.0 mi Calm Calm - N/A   Haze
5:59 PM 6.8 °F - -0.4 °F 72% 30.09 in 3.0 mi Calm Calm - 0.00 in Snow Light Snow
6:04 PM 6.8 °F - -2.2 °F 67% 30.09 in 1.8 mi Calm Calm - 0.00 in Snow Light Snow
6:13 PM 5.0 °F - -0.4 °F 78% 30.08 in 1.0 mi Calm Calm - 0.00 in Snow Light Snow
6:52 PM 5.0 °F - 1.0 °F 84% 30.17 in 0.8 mi Calm Calm - 0.00 in Snow Light Snow
7:05 PM 5.0 °F - 1.4 °F 85% 30.05 in 0.8 mi Calm Calm - 0.00 in Snow Light Snow
7:17 PM 5.0 °F - 1.4 °F 85% 30.04 in 0.5 mi Calm Calm - 0.00 in Fog , Snow Snow
7:52 PM 5.0 °F -2.1 °F 1.9 °F 87% 30.14 in 0.8 mi North 3.5 mph - 0.00 in Snow Light Snow
8:52 PM 6.1 °F -0.9 °F 1.9 °F 83% 30.12 in 1.0 mi NNW 3.5 mph - 0.00 in Snow Light Snow
9:00 PM 6.8 °F -0.1 °F 1.4 °F 79% 30.01 in 0.8 mi Variable 3.5 mph - 0.00 in Snow Light Snow
9:27 PM 6.8 °F - 1.4 °F 79% 30.00 in 1.5 mi Calm Calm - 0.00 in Snow Light Snow
9:44 PM 6.8 °F - 3.2 °F 85% 29.98 in 1.5 mi Calm Calm - 0.00 in Snow Light Snow
9:52 PM 6.1 °F - 1.9 °F 83% 30.07 in 2.0 mi Calm Calm - 0.00 in Snow Light Snow
10:02 PM 6.8 °F - 1.4 °F 79% 29.96 in 3.0 mi Calm Calm - 0.00 in Snow Light Snow
10:10 PM 6.8 °F - 3.2 °F 85% 29.96 in 1.8 mi Calm Calm - 0.00 in Snow Light Snow
10:25 PM 6.8 °F - 3.2 °F 85% 29.96 in 1.5 mi Calm Calm - 0.00 in Snow Light Snow
10:30 PM 6.8 °F - 3.2 °F 85% 29.96 in 1.0 mi Calm Calm - 0.00 in Snow Light Snow
10:45 PM 6.8 °F - 3.2 °F 85% 29.96 in 1.0 mi Calm Calm - 0.00 in Snow Light Snow
10:52 PM 7.0 °F - 3.0 °F 84% 30.04 in 1.2 mi Calm Calm - 0.00 in Snow Light Snow
11:01 PM 6.8 °F - 3.2 °F 85% 29.94 in 2.0 mi Calm Calm - 0.00 in Snow Light Snow
11:07 PM 6.8 °F - 3.2 °F 85% 29.93 in 1.8 mi Calm Calm - 0.00 in Snow Light Snow
11:22 PM 6.8 °F - 3.2 °F 85% 29.93 in 2.0 mi Calm Calm - 0.00 in Snow Light Snow
11:52 PM 7.0 °F - 3.9 °F 87% 30.01 in 1.5 mi Calm Calm - 0.00 in Snow Light Snow
11:59 PM 8.6 °F - 3.2 °F 79% 29.92 in 1.2 mi Calm Calm - 0.00 in Snow Light Snow